Total_Precipitation_Accumulation
2.07 2.09 2.06 1.99 1.82 1.71 1.60 1.55 1.48 1.39 1.37 1.37 1.39 1.40 1.40 1.39 1.40 1.41 1.37 1.38 1.43 1.56 1.66 1.70 1.75 1.80 1.89 1.90 1.92 1.97 2.10 2.22 2.30 2.19 1.99 1.93 1.93 1.86 1.76 1.57 1.46 1.45 1.46
1.60 1.62 1.61 1.54 1.45 1.39 1.33 1.28 1.29 1.27 1.26 1.29 1.30 1.31 1.36 1.42 1.45 1.38 1.28 1.25 1.33 1.45 1.55 1.63 1.63 1.60 1.67 1.77 1.82 1.81 1.86 1.98 2.09 2.13 1.98 1.83 1.83 1.82 1.77 1.70 1.44 1.30 1.31
1.28 1.30 1.30 1.35 1.33 1.29 1.31 1.33 1.32 1.28 1.27 1.24 1.19 1.23 1.30 1.34 1.34 1.29 1.23 1.21 1.23 1.31 1.38 1.40 1.41 1.44 1.41 1.45 1.52 1.58 1.59 1.60 1.75 1.82 1.79 1.74 1.70 1.64 1.70 1.67 1.52 1.54 1.28
1.23 1.19 1.12 1.11 1.17 1.20 1.20 1.21 1.18 1.17 1.22 1.25 1.21 1.16 1.15 1.09 1.03 0.99 0.99 1.03 1.03 1.05 1.10 1.13 1.18 1.26 1.28 1.32 1.30 1.34 1.38 1.50 1.58 1.65 1.61 1.59 1.61 1.51 1.54 1.59 1.54 1.45 1.31
1.39 1.34 1.22 1.11 1.11 1.17 1.16 1.12 1.06 1.03 0.99 1.03 1.05 0.98 0.90 0.78 0.70 0.69 0.74 0.78 0.84 0.86 0.88 0.86 0.87 1.02 1.12 1.10 1.01 1.11 1.26 1.41 1.49 1.53 1.47 1.39 1.35 1.42 1.41 1.38 1.40 1.40 1.33
1.55 1.61 1.59 1.43 1.36 1.35 1.25 1.11 1.10 1.08 1.00 0.93 0.87 0.85 0.79 0.62 0.62 0.59 0.65 0.77 0.86 0.85 0.88 0.88 0.81 0.85 0.88 0.85 0.83 0.96 1.15 1.20 1.29 1.43 1.43 1.39 1.36 1.38 1.39 1.38 1.44 1.50 1.52
1.57 1.61 1.59 1.53 1.49 1.45 1.28 1.15 1.15 1.12 1.09 1.06 0.94 0.88 0.86 0.78 0.65 0.53 0.58 0.72 0.85 0.86 0.86 0.86 0.75 0.70 0.78 0.78 0.78 0.82 0.90 0.91 1.03 1.27 1.42 1.36 1.36 1.44 1.53 1.49 1.57 1.61 1.53
1.62 1.58 1.54 1.42 1.39 1.33 1.24 1.21 1.17 1.11 1.09 1.04 0.97 0.89 0.81 0.65 0.50 0.44 0.46 0.60 0.78 0.83 0.82 0.83 0.84 0.78 0.73 0.74 0.73 0.78 0.86 0.91 0.93 1.00 1.23 1.26 1.24 1.36 1.48 1.55 1.63 1.60 1.52
1.61 1.49 1.40 1.30 1.29 1.22 1.18 1.12 1.05 0.99 0.97 0.91 0.82 0.79 0.78 0.64 0.43 0.37 0.43 0.60 0.77 0.79 0.74 0.68 0.73 0.74 0.73 0.70 0.75 0.89 0.96 1.00 0.85 0.87 0.98 1.08 1.11 1.18 1.26 1.37 1.60 1.75 1.64
1.38 1.19 1.11 1.12 1.12 1.07 1.01 0.97 0.93 0.91 0.89 0.81 0.70 0.73 0.75 0.71 0.53 0.44 0.48 0.59 0.74 0.73 0.72 0.68 0.63 0.62 0.63 0.64 0.73 0.87 0.96 0.97 0.90 0.90 1.07 1.17 1.16 1.25 1.27 1.37 1.61 1.71 1.61
1.25 1.12 1.04 0.99 0.94 0.91 0.92 0.92 0.87 0.81 0.84 0.82 0.80 0.76 0.70 0.61 0.48 0.41 0.43 0.47 0.60 0.66 0.68 0.72 0.65 0.55 0.53 0.56 0.67 0.74 0.82 0.82 0.93 1.10 1.20 1.23 1.25 1.32 1.31 1.32 1.49 1.58 1.64
1.17 1.12 1.09 0.96 0.82 0.81 0.94 0.92 0.88 0.89 0.90 0.86 0.82 0.75 0.63 0.54 0.42 0.35 0.36 0.41 0.49 0.62 0.71 0.73 0.65 0.55 0.51 0.54 0.62 0.68 0.70 0.81 1.01 1.20 1.28 1.27 1.20 1.19 1.23 1.23 1.37 1.47 1.51
1.14 1.12 1.01 0.88 0.89 0.86 0.90 0.89 0.84 0.83 0.78 0.71 0.68 0.67 0.60 0.53 0.44 0.36 0.38 0.43 0.49 0.56 0.62 0.60 0.55 0.55 0.55 0.66 0.70 0.71 0.81 1.03 1.16 1.23 1.30 1.31 1.20 1.13 1.12 1.09 1.18 1.35 1.37
1.20 1.15 1.02 0.90 0.85 0.82 0.80 0.73 0.68 0.68 0.67 0.64 0.61 0.59 0.55 0.53 0.49 0.46 0.47 0.46 0.47 0.52 0.56 0.56 0.61 0.65 0.69 0.79 0.89 0.99 1.03 1.09 1.10 1.17 1.23 1.18 1.06 1.02 1.09 1.09 1.17 1.26 1.32
1.14 1.03 0.91 0.77 0.72 0.72 0.67 0.58 0.52 0.50 0.47 0.49 0.47 0.46 0.49 0.49 0.44 0.43 0.43 0.42 0.43 0.45 0.47 0.63 0.84 0.89 0.97 1.04 1.07 1.12 1.17 1.10 1.05 1.05 1.09 1.09 1.04 1.02 1.04 1.01 1.09 1.17 1.26
1.05 0.87 0.72 0.63 0.56 0.49 0.49 0.49 0.42 0.37 0.34 0.30 0.32 0.32 0.33 0.33 0.31 0.31 0.34 0.36 0.38 0.42 0.48 0.72 0.84 0.90 0.98 1.02 1.02 1.05 1.09 1.12 1.06 1.02 1.03 1.01 1.00 0.99 1.01 0.97 1.01 1.13 1.22
0.86 0.69 0.55 0.50 0.49 0.46 0.44 0.52 0.54 0.39 0.30 0.26 0.28 0.29 0.29 0.27 0.26 0.29 0.34 0.37 0.42 0.51 0.63 0.80 0.83 0.87 0.94 0.90 0.91 0.94 0.96 0.98 0.93 0.91 0.90 0.88 0.87 0.88 0.94 0.95 0.93 0.94 0.95
0.57 0.47 0.41 0.44 0.43 0.38 0.37 0.42 0.46 0.50 0.48 0.40 0.34 0.32 0.28 0.29 0.29 0.32 0.39 0.44 0.56 0.65 0.72 0.77 0.78 0.78 0.83 0.83 0.83 0.84 0.81 0.76 0.73 0.76 0.82 0.82 0.82 0.81 0.82 0.84 0.81 0.80 0.85
0.41 0.39 0.35 0.34 0.32 0.29 0.28 0.30 0.31 0.39 0.48 0.50 0.43 0.38 0.35 0.40 0.41 0.44 0.48 0.54 0.65 0.68 0.68 0.68 0.70 0.71 0.72 0.78 0.79 0.72 0.68 0.64 0.63 0.64 0.67 0.71 0.73 0.72 0.73 0.70 0.67 0.63 0.71
0.34 0.30 0.31 0.29 0.28 0.27 0.26 0.27 0.30 0.34 0.40 0.45 0.44 0.40 0.41 0.50 0.59 0.60 0.59 0.57 0.57 0.58 0.59 0.59 0.57 0.55 0.58 0.63 0.62 0.58 0.56 0.56 0.56 0.56 0.58 0.58 0.57 0.60 0.63 0.60 0.58 0.60 0.66
0.26 0.24 0.25 0.24 0.26 0.25 0.25 0.27 0.29 0.31 0.37 0.43 0.41 0.39 0.44 0.48 0.56 0.57 0.58 0.55 0.52 0.53 0.55 0.52 0.48 0.45 0.46 0.49 0.51 0.50 0.50 0.50 0.52 0.55 0.53 0.50 0.49 0.50 0.49 0.49 0.51 0.52 0.53
0.26 0.25 0.24 0.25 0.24 0.23 0.24 0.28 0.31 0.33 0.35 0.41 0.44 0.42 0.44 0.46 0.52 0.56 0.58 0.54 0.49 0.48 0.47 0.47 0.43 0.42 0.42 0.44 0.45 0.44 0.42 0.44 0.48 0.53 0.50 0.46 0.45 0.45 0.44 0.45 0.47 0.49 0.48
0.25 0.24 0.23 0.24 0.22 0.21 0.22 0.24 0.27 0.30 0.32 0.39 0.42 0.41 0.42 0.46 0.50 0.54 0.55 0.48 0.39 0.37 0.39 0.43 0.44 0.41 0.39 0.38 0.37 0.37 0.35 0.35 0.39 0.43 0.45 0.42 0.43 0.41 0.39 0.40 0.40 0.45 0.48
0.21 0.22 0.23 0.25 0.24 0.23 0.24 0.24 0.26 0.28 0.29 0.34 0.39 0.38 0.38 0.45 0.47 0.46 0.45 0.39 0.32 0.31 0.32 0.35 0.39 0.38 0.35 0.34 0.33 0.31 0.32 0.32 0.32 0.32 0.33 0.37 0.40 0.38 0.36 0.36 0.38 0.41 0.46
0.19 0.22 0.26 0.26 0.26 0.24 0.23 0.21 0.23 0.25 0.29 0.33 0.37 0.34 0.32 0.35 0.39 0.40 0.39 0.38 0.34 0.33 0.31 0.31 0.32 0.32 0.31 0.30 0.29 0.26 0.27 0.30 0.30 0.28 0.26 0.29 0.34 0.34 0.36 0.40 0.41 0.42 0.44
0.15 0.20 0.24 0.26 0.27 0.25 0.21 0.21 0.23 0.26 0.28 0.29 0.30 0.30 0.29 0.30 0.33 0.35 0.35 0.34 0.32 0.30 0.29 0.28 0.28 0.29 0.32 0.33 0.32 0.30 0.28 0.27 0.27 0.28 0.27 0.29 0.34 0.36 0.39 0.41 0.41 0.45 0.48